Retour au catalogue

DIRECTV 6

TEMPO 2

ActifCommunicationsGEO
NORAD 24748·PAYLOAD·🇺🇸 United States

Lancé Mar 8, 1997 depuis Cape Canaveral Space Force Station

Loading…

TLE

FraisSource: Space-Track

Époque: Sep 14, 2026, 12:03 UTC

1 24748U 97011A   26257.50265102  .00000040  00000-0  00000-0 0  9990
2 24748  13.2400  22.0615 0022847 317.4094  75.2290  0.99028612107374

Suivez DIRECTV 6 en temps réel avec AllMySat

Download on the App Store